Flag for U.S.A. Weather past 2 weeks in St. Louis, Missouri, U.S.A.

Now
25 °F

Broken clouds.


Feels Like: 14 °F
Forecast: 14 / 28 °F
Wind: 12 mph from Southeast

Location: Lambert-St. Louis International Airport

Current Time: Feb 28, 2015 at 12:08:14 PM

Latest Report: Feb 28, 2015 at 10:51 AM


Visibility: 10 mi

Pressure: 30.65 "Hg

Humidity: 50%

Dew point: 9 °F

Location of St. LouisLocation

Historic Weather in St. Louis — Graph

°F

St. Louis temperature yesterday

Maximum temperature yesterday: 19 °F (at 3:51 PM)
Minimum temperature yesterday: 3 °F (at 5:51 AM)
Average temperature yesterday: 12 °F

Past Weeks' High & Low Weather Summary

 TemperatureHumidityPressure
High44 °F (Feb 25, 1:51 PM)89% (Feb 21, 12:51 AM)30.85 "Hg (Feb 21, 12:51 AM)
Low1 °F (Feb 19, 5:51 AM)24% (Feb 14, 2:51 PM)29.84 "Hg (Feb 25, 3:51 PM)
Average22 °F59%30.31 "Hg
* Reported Feb 13 10:51 AM — Feb 28 10:51 AM, St. Louis, Weather by CustomWeather, © 2015

Note: Actual official high and low records may vary slightly from our data, if they occured in-between our weather recording intervals... More about our weather records

Advertising

St. Louis weather history for previous 24 hours

 ConditionsComfort  
Time TempWeatherWind HumidityBarometerVisibility
10:51 AM
Sat, Feb 28
25 °FBroken clouds.12 mph50%30.65 "Hg10 mi
9:51 AM22 °FPartly sunny.9 mph55%30.68 "Hg10 mi
8:51 AM20 °FPartly sunny.8 mph57%30.70 "Hg10 mi
7:51 AM18 °FOvercast.8 mph62%30.71 "Hg10 mi
6:51 AM17 °FOvercast.7 mph62%30.70 "Hg10 mi
5:51 AM16 °FOvercast.7 mph62%30.70 "Hg10 mi
4:51 AM16 °FMostly cloudy.8 mph59%30.69 "Hg10 mi
3:51 AM15 °FOvercast.6 mph61%30.69 "Hg10 mi
2:51 AM15 °FMostly cloudy.8 mph56%30.68 "Hg10 mi
1:51 AM15 °FOvercast.6 mph56%30.71 "Hg10 mi
12:51 AM15 °FOvercast.6 mph56%30.70 "Hg10 mi
11:51 PM
Fri, Feb 27
15 °FPassing clouds.7 mph56%30.71 "Hg10 mi
10:51 PM15 °FPassing clouds.8 mph58%30.71 "Hg10 mi
9:51 PM15 °FPassing clouds.8 mph53%30.72 "Hg10 mi
8:51 PM16 °FPassing clouds.7 mph53%30.72 "Hg10 mi
7:51 PM16 °FPartly cloudy.7 mph49%30.72 "Hg10 mi
6:51 PM16 °FPartly cloudy.7 mph45%30.71 "Hg10 mi
5:51 PM17 °FPartly sunny.6 mph41%30.70 "Hg10 mi
4:51 PM18 °FBroken clouds.7 mph43%30.69 "Hg10 mi
3:51 PM19 °FScattered clouds.6 mph45%30.69 "Hg10 mi
2:51 PM18 °FPartly sunny.No wind43%30.70 "Hg10 mi
1:51 PM18 °FPartly sunny.7 mph49%30.70 "Hg10 mi
12:51 PM16 °FPassing clouds.7 mph51%30.71 "Hg10 mi
Weather by CustomWeather, © 2015

See weather overviewHow to use our weather pages